owner,sensor,date,latitude,longitude,vertical_datum,mass_concentration_of_oxygen_in_sea_water,qcFlag 
DISL,ioos:station:DISL:BSCA:1,2015-06-01T00:00:00Z,30.3288,-87.8293,1.788,6.13,1111122 
DISL,ioos:station:DISL:BSCA:1,2015-06-01T00:30:00Z,30.3288,-87.8293,1.77,6.09,1111122 
DISL,ioos:station:DISL:BSCA:1,2015-06-01T01:00:00Z,30.3288,-87.8293,1.764,5.77,1111122 
DISL,ioos:station:DISL:BSCA:1,2015-06-01T01:30:00Z,30.3288,-87.8293,1.765,5.74,1111122 
DISL,ioos:station:DISL:BSCA:1,2015-06-01T02:00:00Z,30.3288,-87.8293,1.752,5.19,1111122 
DISL,ioos:station:DISL:BSCA:1,2015-06-01T02:30:00Z,30.3288,-87.8293,1.758,4.76,1111122 
DISL,ioos:station:DISL:BSCA:1,2015-06-01T03:00:00Z,30.3288,-87.8293,1.759,4.0,1111122 
DISL,ioos:station:DISL:BSCA:1,2015-06-01T03:30:00Z,30.3288,-87.8293,1.769,2.96,1111122 
DISL,ioos:station:DISL:BSCA:1,2015-06-01T04:00:00Z,30.3288,-87.8293,1.778,2.48,1111122 
DISL,ioos:station:DISL:BSCA:1,2015-06-01T04:30:00Z,30.3288,-87.8293,1.796,1.67,1111122 
DISL,ioos:station:DISL:BSCA:1,2015-06-01T05:00:00Z,30.3288,-87.8293,1.804,3.44,1111122 
DISL,ioos:station:DISL:BSCA:1,2015-06-01T05:30:00Z,30.3288,-87.8293,1.839,3.53,1111122 
DISL,ioos:station:DISL:BSCA:1,2015-06-01T06:00:00Z,30.3288,-87.8293,1.84,3.31,1111122 
DISL,ioos:station:DISL:BSCA:1,2015-06-01T06:30:00Z,30.3288,-87.8293,1.833,3.29,1111122 
DISL,ioos:station:DISL:BSCA:1,2015-06-01T07:00:00Z,30.3288,-87.8293,1.854,3.58,1111122 
DISL,ioos:station:DISL:BSCA:1,2015-06-01T07:30:00Z,30.3288,-87.8293,1.858,4.06,1111122 
DISL,ioos:station:DISL:BSCA:1,2015-06-01T08:00:00Z,30.3288,-87.8293,1.878,4.75,1111122 
DISL,ioos:station:DISL:BSCA:1,2015-06-01T08:30:00Z,30.3288,-87.8293,1.896,3.3,1111122 
DISL,ioos:station:DISL:BSCA:1,2015-06-01T09:00:00Z,30.3288,-87.8293,1.926,2.44,1111122 
DISL,ioos:station:DISL:BSCA:1,2015-06-01T09:30:00Z,30.3288,-87.8293,1.962,2.28,1111122 
DISL,ioos:station:DISL:BSCA:1,2015-06-01T10:00:00Z,30.3288,-87.8293,1.983,2.55,1111122 
DISL,ioos:station:DISL:BSCA:1,2015-06-01T10:30:00Z,30.3288,-87.8293,2.017,2.53,1111122 
DISL,ioos:station:DISL:BSCA:1,2015-06-01T11:00:00Z,30.3288,-87.8293,2.049,3.33,1111122 
DISL,ioos:station:DISL:BSCA:1,2015-06-01T11:30:00Z,30.3288,-87.8293,2.08,2.53,1111122 
DISL,ioos:station:DISL:BSCA:1,2015-06-01T12:00:00Z,30.3288,-87.8293,2.127,3.1,1111122 
DISL,ioos:station:DISL:BSCA:1,2015-06-01T12:30:00Z,30.3288,-87.8293,2.151,1.53,1111122 
DISL,ioos:station:DISL:BSCA:1,2015-06-01T13:00:00Z,30.3288,-87.8293,2.17,2.45,1111122 
DISL,ioos:station:DISL:BSCA:1,2015-06-01T13:30:00Z,30.3288,-87.8293,2.18,1.06,1111122 
DISL,ioos:station:DISL:BSCA:1,2015-06-01T14:00:00Z,30.3288,-87.8293,2.213,0.44,1111122 
DISL,ioos:station:DISL:BSCA:1,2015-06-01T14:30:00Z,30.3288,-87.8293,2.213,0.44,1111122 
DISL,ioos:station:DISL:BSCA:1,2015-06-01T15:00:00Z,30.3288,-87.8293,2.225,0.48,1111122 
DISL,ioos:station:DISL:BSCA:1,2015-06-01T15:30:00Z,30.3288,-87.8293,2.223,0.43,1111122 
DISL,ioos:station:DISL:BSCA:1,2015-06-01T16:00:00Z,30.3288,-87.8293,2.215,0.39,1111122 
DISL,ioos:station:DISL:BSCA:1,2015-06-01T16:30:00Z,30.3288,-87.8293,2.198,0.49,1111122 
DISL,ioos:station:DISL:BSCA:1,2015-06-01T17:00:00Z,30.3288,-87.8293,2.167,0.47,1111122 
DISL,ioos:station:DISL:BSCA:1,2015-06-01T17:30:00Z,30.3288,-87.8293,2.149,0.53,1111122 
DISL,ioos:station:DISL:BSCA:1,2015-06-01T18:00:00Z,30.3288,-87.8293,2.111,0.55,1111122 
DISL,ioos:station:DISL:BSCA:1,2015-06-01T18:30:00Z,30.3288,-87.8293,2.09,0.63,1111122 
DISL,ioos:station:DISL:BSCA:1,2015-06-01T19:00:00Z,30.3288,-87.8293,2.053,0.64,1111122 
DISL,ioos:station:DISL:BSCA:1,2015-06-01T19:30:00Z,30.3288,-87.8293,2.018,0.78,1111122 
DISL,ioos:station:DISL:BSCA:1,2015-06-01T20:00:00Z,30.3288,-87.8293,1.972,0.74,1111122 
DISL,ioos:station:DISL:BSCA:1,2015-06-01T20:30:00Z,30.3288,-87.8293,1.914,0.63,1111122 
DISL,ioos:station:DISL:BSCA:1,2015-06-01T21:00:00Z,30.3288,-87.8293,1.88,0.63,1111122 
DISL,ioos:station:DISL:BSCA:1,2015-06-01T21:30:00Z,30.3288,-87.8293,1.867,1.0,1111122 
DISL,ioos:station:DISL:BSCA:1,2015-06-01T22:00:00Z,30.3288,-87.8293,1.827,0.76,1111122 
DISL,ioos:station:DISL:BSCA:1,2015-06-01T22:30:00Z,30.3288,-87.8293,1.829,0.58,1111122 
DISL,ioos:station:DISL:BSCA:1,2015-06-01T23:00:00Z,30.3288,-87.8293,1.751,0.83,1111122 
DISL,ioos:station:DISL:BSCA:1,2015-06-01T23:30:00Z,30.3288,-87.8293,1.764,0.36,1111122 
DISL,ioos:station:DISL:BSCA:1,2015-06-02T00:00:00Z,30.3288,-87.8293,1.71,0.44,1111122 
DISL,ioos:station:DISL:BSCA:1,2015-06-02T00:30:00Z,30.3288,-87.8293,1.692,0.65,1111122 
DISL,ioos:station:DISL:BSCA:1,2015-06-02T01:00:00Z,30.3288,-87.8293,1.671,1.14,1111122 
DISL,ioos:station:DISL:BSCA:1,2015-06-02T01:30:00Z,30.3288,-87.8293,1.66,2.01,1111122 
DISL,ioos:station:DISL:BSCA:1,2015-06-02T02:00:00Z,30.3288,-87.8293,1.658,2.24,1111122 
DISL,ioos:station:DISL:BSCA:1,2015-06-02T02:30:00Z,30.3288,-87.8293,1.661,1.7,1111122 
DISL,ioos:station:DISL:BSCA:1,2015-06-02T03:00:00Z,30.3288,-87.8293,1.657,2.88,1111122 
DISL,ioos:station:DISL:BSCA:1,2015-06-02T03:30:00Z,30.3288,-87.8293,1.685,2.36,1111122 
DISL,ioos:station:DISL:BSCA:1,2015-06-02T04:00:00Z,30.3288,-87.8293,1.711,1.67,1111122 
DISL,ioos:station:DISL:BSCA:1,2015-06-02T04:30:00Z,30.3288,-87.8293,1.747,0.92,1111122 
DISL,ioos:station:DISL:BSCA:1,2015-06-02T05:00:00Z,30.3288,-87.8293,1.778,1.1,1111122 
DISL,ioos:station:DISL:BSCA:1,2015-06-02T05:30:00Z,30.3288,-87.8293,1.808,1.19,1111122 
DISL,ioos:station:DISL:BSCA:1,2015-06-02T06:00:00Z,30.3288,-87.8293,1.829,0.97,1111122 
DISL,ioos:station:DISL:BSCA:1,2015-06-02T06:30:00Z,30.3288,-87.8293,1.866,1.61,1111122 
DISL,ioos:station:DISL:BSCA:1,2015-06-02T07:00:00Z,30.3288,-87.8293,1.882,1.85,1111122 
DISL,ioos:station:DISL:BSCA:1,2015-06-02T07:30:00Z,30.3288,-87.8293,1.91,1.0,1111122 
DISL,ioos:station:DISL:BSCA:1,2015-06-02T08:00:00Z,30.3288,-87.8293,1.928,1.8,1111122 
DISL,ioos:station:DISL:BSCA:1,2015-06-02T08:30:00Z,30.3288,-87.8293,1.959,1.97,1111122 
DISL,ioos:station:DISL:BSCA:1,2015-06-02T09:00:00Z,30.3288,-87.8293,1.961,1.44,1111122 
DISL,ioos:station:DISL:BSCA:1,2015-06-02T09:30:00Z,30.3288,-87.8293,1.994,1.32,1111122 
DISL,ioos:station:DISL:BSCA:1,2015-06-02T10:00:00Z,30.3288,-87.8293,2.036,0.89,1111122 
DISL,ioos:station:DISL:BSCA:1,2015-06-02T10:30:00Z,30.3288,-87.8293,2.058,0.94,1111122 
DISL,ioos:station:DISL:BSCA:1,2015-06-02T11:00:00Z,30.3288,-87.8293,2.142,1.88,1111122 
DISL,ioos:station:DISL:BSCA:1,2015-06-02T11:30:00Z,30.3288,-87.8293,2.139,0.65,1111122 
DISL,ioos:station:DISL:BSCA:1,2015-06-02T12:00:00Z,30.3288,-87.8293,2.124,0.6,1111122 
DISL,ioos:station:DISL:BSCA:1,2015-06-02T12:30:00Z,30.3288,-87.8293,2.116,0.78,1111122 
DISL,ioos:station:DISL:BSCA:1,2015-06-02T13:00:00Z,30.3288,-87.8293,2.123,0.61,1111122 
DISL,ioos:station:DISL:BSCA:1,2015-06-02T13:30:00Z,30.3288,-87.8293,2.178,0.36,1111122 
DISL,ioos:station:DISL:BSCA:1,2015-06-02T14:00:00Z,30.3288,-87.8293,2.212,0.37,1111122 
DISL,ioos:station:DISL:BSCA:1,2015-06-02T14:30:00Z,30.3288,-87.8293,2.239,0.37,1111122 
DISL,ioos:station:DISL:BSCA:1,2015-06-02T15:00:00Z,30.3288,-87.8293,2.234,0.45,1111122 
DISL,ioos:station:DISL:BSCA:1,2015-06-02T15:30:00Z,30.3288,-87.8293,2.233,0.46,1111122 
DISL,ioos:station:DISL:BSCA:1,2015-06-02T16:00:00Z,30.3288,-87.8293,2.222,0.39,1111122 
DISL,ioos:station:DISL:BSCA:1,2015-06-02T16:30:00Z,30.3288,-87.8293,2.215,0.41,1111122 
DISL,ioos:station:DISL:BSCA:1,2015-06-02T17:00:00Z,30.3288,-87.8293,2.225,0.38,1111122 
DISL,ioos:station:DISL:BSCA:1,2015-06-02T17:30:00Z,30.3288,-87.8293,2.182,0.37,1111122 
DISL,ioos:station:DISL:BSCA:1,2015-06-02T18:00:00Z,30.3288,-87.8293,2.134,0.37,1111122 
DISL,ioos:station:DISL:BSCA:1,2015-06-02T18:30:00Z,30.3288,-87.8293,2.092,0.43,1111122 
DISL,ioos:station:DISL:BSCA:1,2015-06-02T19:00:00Z,30.3288,-87.8293,2.057,0.42,1111122 
DISL,ioos:station:DISL:BSCA:1,2015-06-02T19:30:00Z,30.3288,-87.8293,2.038,0.46,1111122 
DISL,ioos:station:DISL:BSCA:1,2015-06-02T20:00:00Z,30.3288,-87.8293,2.014,0.57,1111122 
DISL,ioos:station:DISL:BSCA:1,2015-06-02T20:30:00Z,30.3288,-87.8293,1.98,0.49,1111122 
DISL,ioos:station:DISL:BSCA:1,2015-06-02T21:00:00Z,30.3288,-87.8293,1.953,0.36,1111122 
DISL,ioos:station:DISL:BSCA:1,2015-06-02T21:30:00Z,30.3288,-87.8293,1.902,1.13,1111122 
DISL,ioos:station:DISL:BSCA:1,2015-06-02T22:00:00Z,30.3288,-87.8293,1.868,1.57,1111122 
DISL,ioos:station:DISL:BSCA:1,2015-06-02T22:30:00Z,30.3288,-87.8293,1.836,1.52,1111122 
DISL,ioos:station:DISL:BSCA:1,2015-06-02T23:00:00Z,30.3288,-87.8293,1.793,1.82,1111122 
DISL,ioos:station:DISL:BSCA:1,2015-06-02T23:30:00Z,30.3288,-87.8293,1.77,2.43,1111122 
DISL,ioos:station:DISL:BSCA:1,2015-06-03T00:00:00Z,30.3288,-87.8293,1.737,2.75,1111122 
DISL,ioos:station:DISL:BSCA:1,2015-06-03T00:30:00Z,30.3288,-87.8293,1.719,2.74,1111122 
DISL,ioos:station:DISL:BSCA:1,2015-06-03T01:00:00Z,30.3288,-87.8293,1.703,2.82,1111122 
DISL,ioos:station:DISL:BSCA:1,2015-06-03T01:30:00Z,30.3288,-87.8293,1.702,1.92,1111122 
DISL,ioos:station:DISL:BSCA:1,2015-06-03T02:00:00Z,30.3288,-87.8293,1.692,1.77,1111122 
DISL,ioos:station:DISL:BSCA:1,2015-06-03T02:30:00Z,30.3288,-87.8293,1.701,2.43,1111122 
DISL,ioos:station:DISL:BSCA:1,2015-06-03T03:00:00Z,30.3288,-87.8293,1.712,2.34,1111122 
DISL,ioos:station:DISL:BSCA:1,2015-06-03T03:30:00Z,30.3288,-87.8293,1.71,1.96,1111122 
DISL,ioos:station:DISL:BSCA:1,2015-06-03T04:00:00Z,30.3288,-87.8293,1.72,0.94,1111122 
DISL,ioos:station:DISL:BSCA:1,2015-06-03T04:30:00Z,30.3288,-87.8293,1.72,4.24,1111122 
DISL,ioos:station:DISL:BSCA:1,2015-06-03T05:00:00Z,30.3288,-87.8293,1.741,2.27,1111122 
DISL,ioos:station:DISL:BSCA:1,2015-06-03T05:30:00Z,30.3288,-87.8293,1.759,3.14,1111122 
DISL,ioos:station:DISL:BSCA:1,2015-06-03T06:00:00Z,30.3288,-87.8293,1.787,3.01,1111122 
DISL,ioos:station:DISL:BSCA:1,2015-06-03T06:30:00Z,30.3288,-87.8293,1.809,2.87,1111122 
DISL,ioos:station:DISL:BSCA:1,2015-06-03T07:00:00Z,30.3288,-87.8293,1.842,2.28,1111122 
DISL,ioos:station:DISL:BSCA:1,2015-06-03T07:30:00Z,30.3288,-87.8293,1.878,1.03,1111122 
DISL,ioos:station:DISL:BSCA:1,2015-06-03T08:00:00Z,30.3288,-87.8293,1.91,1.75,1111122 
DISL,ioos:station:DISL:BSCA:1,2015-06-03T08:30:00Z,30.3288,-87.8293,1.921,1.82,1111122 
DISL,ioos:station:DISL:BSCA:1,2015-06-03T09:00:00Z,30.3288,-87.8293,1.92,1.92,1111122 
DISL,ioos:station:DISL:BSCA:1,2015-06-03T09:30:00Z,30.3288,-87.8293,1.935,1.69,1111122 
DISL,ioos:station:DISL:BSCA:1,2015-06-03T10:00:00Z,30.3288,-87.8293,1.943,1.44,1111122 
DISL,ioos:station:DISL:BSCA:1,2015-06-03T10:30:00Z,30.3288,-87.8293,1.953,1.36,1111122 
DISL,ioos:station:DISL:BSCA:1,2015-06-03T11:00:00Z,30.3288,-87.8293,1.978,0.71,1111122 
DISL,ioos:station:DISL:BSCA:1,2015-06-03T11:30:00Z,30.3288,-87.8293,2.001,1.0,1111122 
DISL,ioos:station:DISL:BSCA:1,2015-06-03T12:00:00Z,30.3288,-87.8293,2.023,0.8,1111122 
DISL,ioos:station:DISL:BSCA:1,2015-06-03T12:30:00Z,30.3288,-87.8293,2.045,0.9,1111122 
DISL,ioos:station:DISL:BSCA:1,2015-06-03T13:00:00Z,30.3288,-87.8293,2.086,0.45,1111122 
DISL,ioos:station:DISL:BSCA:1,2015-06-03T13:30:00Z,30.3288,-87.8293,2.126,0.66,1111122 
DISL,ioos:station:DISL:BSCA:1,2015-06-03T14:00:00Z,30.3288,-87.8293,2.167,0.48,1111122 
DISL,ioos:station:DISL:BSCA:1,2015-06-03T14:30:00Z,30.3288,-87.8293,2.201,0.55,1111122 
DISL,ioos:station:DISL:BSCA:1,2015-06-03T15:00:00Z,30.3288,-87.8293,2.218,0.53,1111122 
DISL,ioos:station:DISL:BSCA:1,2015-06-03T15:30:00Z,30.3288,-87.8293,2.239,0.52,1111122 
DISL,ioos:station:DISL:BSCA:1,2015-06-03T16:00:00Z,30.3288,-87.8293,2.245,0.4,1111122 
DISL,ioos:station:DISL:BSCA:1,2015-06-03T16:30:00Z,30.3288,-87.8293,2.264,0.36,1111122 
DISL,ioos:station:DISL:BSCA:1,2015-06-03T17:00:00Z,30.3288,-87.8293,2.273,0.38,1111122 
DISL,ioos:station:DISL:BSCA:1,2015-06-03T17:30:00Z,30.3288,-87.8293,2.271,0.42,1111122 
DISL,ioos:station:DISL:BSCA:1,2015-06-03T18:00:00Z,30.3288,-87.8293,2.257,0.43,1111122 
DISL,ioos:station:DISL:BSCA:1,2015-06-03T18:30:00Z,30.3288,-87.8293,2.235,0.67,1111122 
DISL,ioos:station:DISL:BSCA:1,2015-06-03T19:00:00Z,30.3288,-87.8293,2.2,0.68,1111122 
DISL,ioos:station:DISL:BSCA:1,2015-06-03T19:30:00Z,30.3288,-87.8293,2.164,0.89,1111122 
DISL,ioos:station:DISL:BSCA:1,2015-06-03T20:00:00Z,30.3288,-87.8293,2.12,1.12,1111122 
DISL,ioos:station:DISL:BSCA:1,2015-06-03T20:30:00Z,30.3288,-87.8293,2.073,1.52,1111122 
DISL,ioos:station:DISL:BSCA:1,2015-06-03T21:00:00Z,30.3288,-87.8293,2.029,0.7,1111122 
DISL,ioos:station:DISL:BSCA:1,2015-06-03T21:30:00Z,30.3288,-87.8293,1.981,1.18,1111122 
DISL,ioos:station:DISL:BSCA:1,2015-06-03T22:00:00Z,30.3288,-87.8293,1.947,1.32,1111122 
DISL,ioos:station:DISL:BSCA:1,2015-06-03T22:30:00Z,30.3288,-87.8293,1.906,1.59,1111122 
DISL,ioos:station:DISL:BSCA:1,2015-06-03T23:00:00Z,30.3288,-87.8293,1.876,0.72,1111122 
DISL,ioos:station:DISL:BSCA:1,2015-06-03T23:30:00Z,30.3288,-87.8293,1.836,0.76,1111122 
DISL,ioos:station:DISL:BSCA:1,2015-06-04T00:00:00Z,30.3288,-87.8293,1.806,0.72,1111122 
DISL,ioos:station:DISL:BSCA:1,2015-06-04T00:30:00Z,30.3288,-87.8293,1.778,0.63,1111122 
DISL,ioos:station:DISL:BSCA:1,2015-06-04T01:00:00Z,30.3288,-87.8293,1.757,0.58,1111122 
DISL,ioos:station:DISL:BSCA:1,2015-06-04T01:30:00Z,30.3288,-87.8293,1.733,0.69,1111122 
DISL,ioos:station:DISL:BSCA:1,2015-06-04T02:00:00Z,30.3288,-87.8293,1.719,0.4,1111122 
DISL,ioos:station:DISL:BSCA:1,2015-06-04T02:30:00Z,30.3288,-87.8293,1.704,0.45,1111122 
DISL,ioos:station:DISL:BSCA:1,2015-06-04T03:00:00Z,30.3288,-87.8293,1.699,0.37,1111122 
DISL,ioos:station:DISL:BSCA:1,2015-06-04T03:30:00Z,30.3288,-87.8293,1.693,0.52,1111122 
DISL,ioos:station:DISL:BSCA:1,2015-06-04T04:00:00Z,30.3288,-87.8293,1.694,0.61,1111122 
DISL,ioos:station:DISL:BSCA:1,2015-06-04T04:30:00Z,30.3288,-87.8293,1.685,1.23,1111122 
DISL,ioos:station:DISL:BSCA:1,2015-06-04T05:00:00Z,30.3288,-87.8293,1.707,1.28,1111122 
DISL,ioos:station:DISL:BSCA:1,2015-06-04T05:30:00Z,30.3288,-87.8293,1.7,1.66,1111122 
DISL,ioos:station:DISL:BSCA:1,2015-06-04T06:00:00Z,30.3288,-87.8293,1.723,2.16,1111122 
DISL,ioos:station:DISL:BSCA:1,2015-06-04T06:30:00Z,30.3288,-87.8293,1.728,2.4,1111122 
DISL,ioos:station:DISL:BSCA:1,2015-06-04T07:00:00Z,30.3288,-87.8293,1.753,2.84,1111122 
DISL,ioos:station:DISL:BSCA:1,2015-06-04T07:30:00Z,30.3288,-87.8293,1.786,2.12,1111122 
DISL,ioos:station:DISL:BSCA:1,2015-06-04T08:00:00Z,30.3288,-87.8293,1.809,0.7,1111122 
DISL,ioos:station:DISL:BSCA:1,2015-06-04T08:30:00Z,30.3288,-87.8293,1.844,0.35,1111122 
DISL,ioos:station:DISL:BSCA:1,2015-06-04T09:00:00Z,30.3288,-87.8293,1.864,0.4,1111122 
DISL,ioos:station:DISL:BSCA:1,2015-06-04T09:30:00Z,30.3288,-87.8293,1.896,0.34,1111122 
DISL,ioos:station:DISL:BSCA:1,2015-06-04T10:00:00Z,30.3288,-87.8293,1.915,0.54,1111122 
DISL,ioos:station:DISL:BSCA:1,2015-06-04T10:30:00Z,30.3288,-87.8293,1.936,0.46,1111122 
DISL,ioos:station:DISL:BSCA:1,2015-06-04T11:00:00Z,30.3288,-87.8293,1.966,0.39,1111122 
DISL,ioos:station:DISL:BSCA:1,2015-06-04T11:30:00Z,30.3288,-87.8293,1.997,0.69,1111122 
DISL,ioos:station:DISL:BSCA:1,2015-06-04T12:00:00Z,30.3288,-87.8293,2.028,0.39,1111122 
DISL,ioos:station:DISL:BSCA:1,2015-06-04T12:30:00Z,30.3288,-87.8293,2.064,0.34,1111122 
DISL,ioos:station:DISL:BSCA:1,2015-06-04T13:00:00Z,30.3288,-87.8293,2.105,0.37,1111122 
DISL,ioos:station:DISL:BSCA:1,2015-06-04T13:30:00Z,30.3288,-87.8293,2.143,0.34,1111122 
DISL,ioos:station:DISL:BSCA:1,2015-06-04T14:00:00Z,30.3288,-87.8293,2.17,0.32,1111122 
DISL,ioos:station:DISL:BSCA:1,2015-06-04T14:30:00Z,30.3288,-87.8293,2.199,0.32,1111122 
DISL,ioos:station:DISL:BSCA:1,2015-06-04T15:00:00Z,30.3288,-87.8293,2.224,0.32,1111122 
DISL,ioos:station:DISL:BSCA:1,2015-06-04T15:30:00Z,30.3288,-87.8293,2.249,0.31,1111122 
DISL,ioos:station:DISL:BSCA:1,2015-06-04T16:00:00Z,30.3288,-87.8293,2.271,0.33,1111122 
DISL,ioos:station:DISL:BSCA:1,2015-06-04T16:30:00Z,30.3288,-87.8293,2.288,0.33,1111122 
DISL,ioos:station:DISL:BSCA:1,2015-06-04T17:00:00Z,30.3288,-87.8293,2.301,0.41,1111122 
DISL,ioos:station:DISL:BSCA:1,2015-06-04T17:30:00Z,30.3288,-87.8293,2.285,0.4,1111122 
DISL,ioos:station:DISL:BSCA:1,2015-06-04T18:00:00Z,30.3288,-87.8293,2.276,0.55,1111122 
DISL,ioos:station:DISL:BSCA:1,2015-06-04T18:30:00Z,30.3288,-87.8293,2.255,0.79,1111122 
DISL,ioos:station:DISL:BSCA:1,2015-06-04T19:00:00Z,30.3288,-87.8293,2.23,1.15,1111122 
DISL,ioos:station:DISL:BSCA:1,2015-06-04T19:30:00Z,30.3288,-87.8293,2.204,0.74,1111122 
DISL,ioos:station:DISL:BSCA:1,2015-06-04T20:00:00Z,30.3288,-87.8293,2.168,0.93,1111122 
DISL,ioos:station:DISL:BSCA:1,2015-06-04T20:30:00Z,30.3288,-87.8293,2.133,1.02,1111122 
DISL,ioos:station:DISL:BSCA:1,2015-06-04T21:00:00Z,30.3288,-87.8293,2.086,0.74,1111122 
DISL,ioos:station:DISL:BSCA:1,2015-06-04T21:30:00Z,30.3288,-87.8293,2.039,0.85,1111122 
DISL,ioos:station:DISL:BSCA:1,2015-06-04T22:00:00Z,30.3288,-87.8293,1.994,0.59,1111122 
DISL,ioos:station:DISL:BSCA:1,2015-06-04T22:30:00Z,30.3288,-87.8293,1.952,0.72,1111122 
DISL,ioos:station:DISL:BSCA:1,2015-06-04T23:00:00Z,30.3288,-87.8293,1.91,0.97,1111122 
DISL,ioos:station:DISL:BSCA:1,2015-06-04T23:30:00Z,30.3288,-87.8293,1.877,0.87,1111122 
DISL,ioos:station:DISL:BSCA:1,2015-06-05T00:00:00Z,30.3288,-87.8293,1.84,0.65,1111122 
DISL,ioos:station:DISL:BSCA:1,2015-06-05T00:30:00Z,30.3288,-87.8293,1.812,0.71,1111122 
DISL,ioos:station:DISL:BSCA:1,2015-06-05T01:00:00Z,30.3288,-87.8293,1.782,0.75,1111122 
DISL,ioos:station:DISL:BSCA:1,2015-06-05T01:30:00Z,30.3288,-87.8293,1.752,0.76,1111122 
DISL,ioos:station:DISL:BSCA:1,2015-06-05T02:00:00Z,30.3288,-87.8293,1.729,0.77,1111122 
DISL,ioos:station:DISL:BSCA:1,2015-06-05T02:30:00Z,30.3288,-87.8293,1.724,0.34,1111122 
DISL,ioos:station:DISL:BSCA:1,2015-06-05T03:00:00Z,30.3288,-87.8293,1.688,0.41,1111122 
DISL,ioos:station:DISL:BSCA:1,2015-06-05T03:30:00Z,30.3288,-87.8293,1.688,0.9,1111122 
DISL,ioos:station:DISL:BSCA:1,2015-06-05T04:00:00Z,30.3288,-87.8293,1.628,1.71,1111122 
DISL,ioos:station:DISL:BSCA:1,2015-06-05T04:30:00Z,30.3288,-87.8293,1.626,1.25,1111122 
DISL,ioos:station:DISL:BSCA:1,2015-06-05T05:00:00Z,30.3288,-87.8293,1.607,0.58,1111122 
DISL,ioos:station:DISL:BSCA:1,2015-06-05T05:30:00Z,30.3288,-87.8293,1.605,0.51,1111122 
DISL,ioos:station:DISL:BSCA:1,2015-06-05T06:00:00Z,30.3288,-87.8293,1.612,0.68,1111122 
DISL,ioos:station:DISL:BSCA:1,2015-06-05T06:30:00Z,30.3288,-87.8293,1.642,0.56,1111122 
DISL,ioos:station:DISL:BSCA:1,2015-06-05T07:00:00Z,30.3288,-87.8293,1.674,0.58,1111122 
DISL,ioos:station:DISL:BSCA:1,2015-06-05T07:30:00Z,30.3288,-87.8293,1.726,0.88,1111122 
DISL,ioos:station:DISL:BSCA:1,2015-06-05T08:00:00Z,30.3288,-87.8293,1.765,0.9,1111122 
DISL,ioos:station:DISL:BSCA:1,2015-06-05T08:30:00Z,30.3288,-87.8293,1.819,0.34,1111122 
DISL,ioos:station:DISL:BSCA:1,2015-06-05T09:00:00Z,30.3288,-87.8293,1.85,0.32,1111122 
DISL,ioos:station:DISL:BSCA:1,2015-06-05T09:30:00Z,30.3288,-87.8293,1.889,0.32,1111122 
DISL,ioos:station:DISL:BSCA:1,2015-06-05T10:00:00Z,30.3288,-87.8293,1.91,0.31,1111122 
DISL,ioos:station:DISL:BSCA:1,2015-06-05T10:30:00Z,30.3288,-87.8293,1.93,0.32,1111122 
DISL,ioos:station:DISL:BSCA:1,2015-06-05T11:00:00Z,30.3288,-87.8293,1.939,0.32,1111122 
DISL,ioos:station:DISL:BSCA:1,2015-06-05T11:30:00Z,30.3288,-87.8293,1.953,0.32,1111122 
DISL,ioos:station:DISL:BSCA:1,2015-06-05T12:00:00Z,30.3288,-87.8293,1.982,0.35,1111122 
DISL,ioos:station:DISL:BSCA:1,2015-06-05T12:30:00Z,30.3288,-87.8293,2.006,0.35,1111122 
DISL,ioos:station:DISL:BSCA:1,2015-06-05T13:00:00Z,30.3288,-87.8293,2.031,0.34,1111122 
DISL,ioos:station:DISL:BSCA:1,2015-06-05T13:30:00Z,30.3288,-87.8293,2.055,0.34,1111122 
DISL,ioos:station:DISL:BSCA:1,2015-06-05T14:00:00Z,30.3288,-87.8293,2.069,0.38,1111122 
DISL,ioos:station:DISL:BSCA:1,2015-06-05T14:30:00Z,30.3288,-87.8293,2.096,0.32,1111122 
DISL,ioos:station:DISL:BSCA:1,2015-06-05T15:00:00Z,30.3288,-87.8293,2.113,0.32,1111122 
DISL,ioos:station:DISL:BSCA:1,2015-06-05T15:30:00Z,30.3288,-87.8293,2.14,0.32,1111122 
DISL,ioos:station:DISL:BSCA:1,2015-06-05T16:00:00Z,30.3288,-87.8293,2.17,0.33,1111122 
DISL,ioos:station:DISL:BSCA:1,2015-06-05T16:30:00Z,30.3288,-87.8293,2.189,0.32,1111122 
DISL,ioos:station:DISL:BSCA:1,2015-06-05T17:00:00Z,30.3288,-87.8293,2.216,0.32,1111122 
DISL,ioos:station:DISL:BSCA:1,2015-06-05T17:30:00Z,30.3288,-87.8293,2.206,0.36,1111122 
DISL,ioos:station:DISL:BSCA:1,2015-06-05T18:00:00Z,30.3288,-87.8293,2.21,0.42,1111122 
DISL,ioos:station:DISL:BSCA:1,2015-06-05T18:30:00Z,30.3288,-87.8293,2.197,0.46,1111122 
DISL,ioos:station:DISL:BSCA:1,2015-06-05T19:00:00Z,30.3288,-87.8293,2.187,0.46,1111122 
DISL,ioos:station:DISL:BSCA:1,2015-06-05T19:30:00Z,30.3288,-87.8293,2.161,0.55,1111122 
DISL,ioos:station:DISL:BSCA:1,2015-06-05T20:00:00Z,30.3288,-87.8293,2.135,0.55,1111122 
DISL,ioos:station:DISL:BSCA:1,2015-06-05T20:30:00Z,30.3288,-87.8293,2.105,0.89,1111122 
DISL,ioos:station:DISL:BSCA:1,2015-06-05T21:00:00Z,30.3288,-87.8293,2.068,0.7,1111122 
DISL,ioos:station:DISL:BSCA:1,2015-06-05T21:30:00Z,30.3288,-87.8293,2.044,0.66,1111122 
DISL,ioos:station:DISL:BSCA:1,2015-06-05T22:00:00Z,30.3288,-87.8293,2.011,0.64,1111122 
DISL,ioos:station:DISL:BSCA:1,2015-06-05T22:30:00Z,30.3288,-87.8293,1.985,0.59,1111122 
DISL,ioos:station:DISL:BSCA:1,2015-06-05T23:00:00Z,30.3288,-87.8293,1.946,0.58,1111122 
DISL,ioos:station:DISL:BSCA:1,2015-06-05T23:30:00Z,30.3288,-87.8293,1.912,0.46,1111122 
DISL,ioos:station:DISL:BSCA:1,2015-06-06T00:00:00Z,30.3288,-87.8293,1.885,0.45,1111122 
DISL,ioos:station:DISL:BSCA:1,2015-06-06T00:30:00Z,30.3288,-87.8293,1.848,0.59,1111122 
DISL,ioos:station:DISL:BSCA:1,2015-06-06T01:00:00Z,30.3288,-87.8293,1.819,0.59,1111122 
DISL,ioos:station:DISL:BSCA:1,2015-06-06T01:30:00Z,30.3288,-87.8293,1.786,0.67,1111122 
DISL,ioos:station:DISL:BSCA:1,2015-06-06T02:00:00Z,30.3288,-87.8293,1.757,0.73,1111122 
DISL,ioos:station:DISL:BSCA:1,2015-06-06T02:30:00Z,30.3288,-87.8293,1.728,0.49,1111122 
DISL,ioos:station:DISL:BSCA:1,2015-06-06T03:00:00Z,30.3288,-87.8293,1.696,0.37,1111122 
DISL,ioos:station:DISL:BSCA:1,2015-06-06T03:30:00Z,30.3288,-87.8293,1.672,0.4,1111122 
DISL,ioos:station:DISL:BSCA:1,2015-06-06T04:00:00Z,30.3288,-87.8293,1.661,0.38,1111122 
DISL,ioos:station:DISL:BSCA:1,2015-06-06T04:30:00Z,30.3288,-87.8293,1.656,0.34,1111122 
DISL,ioos:station:DISL:BSCA:1,2015-06-06T05:00:00Z,30.3288,-87.8293,1.655,0.35,1111122 
DISL,ioos:station:DISL:BSCA:1,2015-06-06T05:30:00Z,30.3288,-87.8293,1.651,0.33,1111122 
DISL,ioos:station:DISL:BSCA:1,2015-06-06T06:00:00Z,30.3288,-87.8293,1.647,0.39,1111122 
DISL,ioos:station:DISL:BSCA:1,2015-06-06T06:30:00Z,30.3288,-87.8293,1.652,0.9,1111122 
DISL,ioos:station:DISL:BSCA:1,2015-06-06T07:00:00Z,30.3288,-87.8293,1.669,1.15,1111122 
DISL,ioos:station:DISL:BSCA:1,2015-06-06T07:30:00Z,30.3288,-87.8293,1.68,0.95,1111122 
DISL,ioos:station:DISL:BSCA:1,2015-06-06T08:00:00Z,30.3288,-87.8293,1.699,0.62,1111122 
DISL,ioos:station:DISL:BSCA:1,2015-06-06T08:30:00Z,30.3288,-87.8293,1.732,1.64,1111122 
DISL,ioos:station:DISL:BSCA:1,2015-06-06T09:00:00Z,30.3288,-87.8293,1.755,2.52,1111122 
DISL,ioos:station:DISL:BSCA:1,2015-06-06T09:30:00Z,30.3288,-87.8293,1.789,1.15,1111122 
DISL,ioos:station:DISL:BSCA:1,2015-06-06T10:00:00Z,30.3288,-87.8293,1.811,1.07,1111122 
DISL,ioos:station:DISL:BSCA:1,2015-06-06T10:30:00Z,30.3288,-87.8293,1.825,1.08,1111122 
DISL,ioos:station:DISL:BSCA:1,2015-06-06T11:00:00Z,30.3288,-87.8293,1.846,1.1,1111122 
DISL,ioos:station:DISL:BSCA:1,2015-06-06T11:30:00Z,30.3288,-87.8293,1.878,1.88,1111122 
DISL,ioos:station:DISL:BSCA:1,2015-06-06T12:00:00Z,30.3288,-87.8293,1.901,1.5,1111122 
DISL,ioos:station:DISL:BSCA:1,2015-06-06T12:30:00Z,30.3288,-87.8293,1.937,1.73,1111122 
DISL,ioos:station:DISL:BSCA:1,2015-06-06T13:00:00Z,30.3288,-87.8293,1.962,2.17,1111122 
DISL,ioos:station:DISL:BSCA:1,2015-06-06T13:30:00Z,30.3288,-87.8293,1.987,2.68,1111122 
DISL,ioos:station:DISL:BSCA:1,2015-06-06T14:00:00Z,30.3288,-87.8293,2.005,2.74,1111122 
DISL,ioos:station:DISL:BSCA:1,2015-06-06T14:30:00Z,30.3288,-87.8293,2.03,3.19,1111122 
DISL,ioos:station:DISL:BSCA:1,2015-06-06T15:00:00Z,30.3288,-87.8293,2.045,2.18,1111122 
DISL,ioos:station:DISL:BSCA:1,2015-06-06T15:30:00Z,30.3288,-87.8293,2.075,1.07,1111122 